| time (UTC) | temp F | wind direction | speed MPH | gust MPH | rain 1hr in | rain 24hr in | rain mn in | humidity % | barometer mb |
| 20260506091057 | 35 | 137 | 0.0 | 0.0 | 0.00 | 0.00 | 0.00 | 75 | 1011.7 |
| 20260506090555 | 35 | 137 | 0.0 | 0.0 | 0.00 | 0.00 | 0.00 | 74 | 1011.9 |
| 20260506090051 | 35 | 137 | 0.0 | 0.0 | 0.00 | 0.00 | 0.00 | 74 | 1011.8 |
| 20260506085548 | 35 | 137 | 0.0 | 0.0 | 0.00 | 0.00 | 0.00 | 74 | 1011.6 |
| 20260506085044 | 35 | 137 | 0.0 | 0.0 | 0.00 | 0.00 | 0.00 | 74 | 1011.8 |
| 20260506084541 | 35 | 137 | 0.0 | 0.0 | 0.00 | 0.00 | 0.00 | 70 | 1011.6 |
| 20260506084037 | 35 | 137 | 0.0 | 0.0 | 0.00 | 0.00 | 0.00 | 69 | 1011.6 |
| 20260506083535 | 35 | 137 | 0.0 | 0.0 | 0.00 | 0.00 | 0.00 | 69 | 1011.7 |
| 20260506083032 | 35 | 137 | 0.0 | 0.0 | 0.00 | 0.00 | 0.00 | 68 | 1011.9 |
| 20260506082529 | 35 | 137 | 0.0 | 1.0 | 0.00 | 0.00 | 0.00 | 68 | 1011.6 |
| 20260506082025 | 35 | 137 | 0.0 | 0.0 | 0.00 | 0.00 | 0.00 | 69 | 1011.6 |
| 20260506081523 | 35 | 137 | 0.0 | 0.0 | 0.00 | 0.00 | 0.00 | 68 | 1011.5 |
| 20260506081020 | 35 | 137 | 0.0 | 0.0 | 0.00 | 0.00 | 0.00 | 68 | 1011.6 |
| 20260506080517 | 35 | 137 | 0.0 | 0.0 | 0.00 | 0.00 | 0.00 | 68 | 1011.4 |
| 20260506073501 | 36 | 136 | 0.0 | 0.0 | 0.00 | 0.00 | 0.00 | 67 | 1011.5 |
| 20260506072958 | 35 | 160 | 1.0 | 2.0 | 0.00 | 0.00 | 0.00 | 67 | 1011.6 |
| 20260506072455 | 35 | 123 | 0.0 | 0.0 | 0.00 | 0.00 | 0.00 | 70 | 1011.4 |
| 20260506071953 | 35 | 126 | 0.0 | 0.0 | 0.00 | 0.00 | 0.00 | 69 | 1011.4 |
| 20260506071451 | 35 | 117 | 0.0 | 1.0 | 0.00 | 0.00 | 0.00 | 71 | 1011.7 |
| 20260506070947 | 35 | 136 | 0.0 | 0.0 | 0.00 | 0.00 | 0.00 | 69 | 1011.5 |
| 20260506070444 | 35 | 120 | 0.0 | 1.0 | 0.00 | 0.00 | 0.00 | 71 | 1011.3 |
| 20260506062422 | 32 | 104 | 0.0 | 0.0 | 0.00 | 0.00 | 0.00 | 74 | 1011.6 |
| 20260506061918 | 31 | 104 | 0.0 | 0.0 | 0.00 | 0.00 | 0.00 | 73 | 1011.6 |
| 20260506061415 | 31 | 104 | 0.0 | 0.0 | 0.00 | 0.00 | 0.00 | 73 | 1011.8 |
| 20260506060913 | 31 | 104 | 0.0 | 0.0 | 0.00 | 0.00 | 0.00 | 75 | 1011.7 |
| 20260506060410 | 30 | 104 | 0.0 | 0.0 | 0.00 | 0.00 | 0.00 | 75 | 1011.5 |
| 20260506051342 | 33 | 91 | 0.0 | 1.0 | 0.00 | 0.00 | 0.00 | 70 | 1011.6 |
| 20260506050840 | 33 | 91 | 0.0 | 1.0 | 0.00 | 0.00 | 0.00 | 69 | 1011.4 |
| 20260506050337 | 33 | 91 | 1.0 | 2.0 | 0.00 | 0.00 | 0.00 | 70 | 1011.6 |
| 20260506044827 | 34 | 92 | 0.0 | 1.0 | 0.00 | 0.00 | 0.00 | 69 | 1011.4 |
| 20260506044325 | 34 | 92 | 1.0 | 2.0 | 0.00 | 0.00 | 0.00 | 69 | 1011.2 |
| 20260506043822 | 34 | 92 | 0.0 | 1.0 | 0.00 | 0.00 | 0.00 | 68 | 1011.2 |
| 20260506043320 | 34 | 91 | 0.0 | 2.0 | 0.00 | 0.00 | 0.00 | 68 | 1011.3 |
| 20260506042818 | 34 | 95 | 0.0 | 1.0 | 0.00 | 0.00 | 0.00 | 68 | 1011.1 |
| 20260506042317 | 34 | 95 | 1.0 | 1.0 | 0.00 | 0.00 | 0.00 | 68 | 1011.1 |
| 20260506041815 | 35 | 95 | 1.0 | 1.0 | 0.00 | 0.00 | 0.00 | 68 | 1011.2 |
| 20260506041311 | 35 | 95 | 1.0 | 2.0 | 0.00 | 0.00 | 0.00 | 67 | 1011.1 |
| 20260506040809 | 35 | 95 | 1.0 | 2.0 | 0.00 | 0.00 | 0.00 | 66 | 1011.0 |
| 20260506040306 | 35 | 96 | 1.0 | 1.0 | 0.00 | 0.00 | 0.00 | 66 | 1011.1 |
| 20260506035802 | 36 | 97 | 1.0 | 1.0 | 0.00 | 0.00 | 0.00 | 64 | 1010.9 |
| 20260506035259 | 36 | 97 | 1.0 | 1.0 | 0.00 | 0.00 | 0.00 | 64 | 1011.0 |
| 20260506034756 | 37 | 92 | 1.0 | 2.0 | 0.00 | 0.00 | 0.00 | 63 | 1010.9 |
| 20260506034254 | 37 | 99 | 0.0 | 1.0 | 0.00 | 0.00 | 0.00 | 61 | 1010.8 |
| 20260506033750 | 38 | 103 | 1.0 | 2.0 | 0.00 | 0.00 | 0.00 | 62 | 1010.7 |
| 20260506033247 | 38 | 99 | 1.0 | 3.0 | 0.00 | 0.00 | 0.00 | 59 | 1010.9 |
| 20260506032744 | 39 | 101 | 1.0 | 3.0 | 0.00 | 0.00 | 0.00 | 61 | 1010.7 |
| 20260506032241 | 39 | 119 | 1.0 | 3.0 | 0.00 | 0.00 | 0.00 | 59 | 1010.8 |
| 20260506031738 | 39 | 100 | 1.0 | 3.0 | 0.00 | 0.00 | 0.00 | 61 | 1010.8 |
| 20260506031235 | 40 | 31 | 2.0 | 3.0 | 0.00 | 0.00 | 0.00 | 59 | 1010.8 |
| 20260506030734 | 40 | 101 | 0.0 | 2.0 | 0.00 | 0.00 | 0.00 | 59 | 1010.7 |
| 20260506030231 | 40 | 46 | 3.0 | 5.0 | 0.00 | 0.00 | 0.00 | 57 | 1010.7 |
| 20260506025727 | 41 | 89 | 1.0 | 2.0 | 0.00 | 0.00 | 0.00 | 58 | 1010.5 |
| 20260506025224 | 41 | 111 | 1.0 | 3.0 | 0.00 | 0.00 | 0.00 | 57 | 1010.7 |
| 20260506024721 | 41 | 6 | 2.0 | 6.0 | 0.00 | 0.00 | 0.00 | 56 | 1010.7 |
| 20260506024217 | 41 | 112 | 1.0 | 3.0 | 0.00 | 0.00 | 0.00 | 57 | 1010.2 |
| 20260506023714 | 41 | 65 | 3.0 | 3.0 | 0.00 | 0.00 | 0.00 | 58 | 1010.5 |
| 20260506023211 | 41 | 102 | 1.0 | 3.0 | 0.00 | 0.00 | 0.00 | 58 | 1010.5 |
| 20260506022708 | 41 | 179 | 1.0 | 1.0 | 0.00 | 0.00 | 0.00 | 57 | 1010.2 |
| 20260506022206 | 42 | 99 | 0.0 | 2.0 | 0.00 | 0.00 | 0.00 | 57 | 1010.1 |
| 20260506021703 | 42 | 115 | 3.0 | 5.0 | 0.00 | 0.00 | 0.00 | 55 | 1010.3 |
| 20260506021200 | 42 | 107 | 0.0 | 2.0 | 0.00 | 0.00 | 0.00 | 56 | 1010.0 |
| 20260506020657 | 42 | 115 | 2.0 | 5.0 | 0.00 | 0.00 | 0.00 | 56 | 1009.9 |
| 20260506020155 | 42 | 112 | 0.0 | 3.0 | 0.00 | 0.00 | 0.00 | 56 | 1009.9 |
| 20260506015652 | 42 | 114 | 0.0 | 2.0 | 0.00 | 0.00 | 0.00 | 56 | 1010.0 |
| 20260506015150 | 42 | 82 | 1.0 | 2.0 | 0.00 | 0.00 | 0.00 | 55 | 1009.7 |
| 20260506014647 | 42 | 102 | 2.0 | 2.0 | 0.00 | 0.00 | 0.00 | 55 | 1009.5 |
| 20260506014142 | 42 | 70 | 2.0 | 2.0 | 0.00 | 0.00 | 0.00 | 55 | 1009.5 |
| 20260506013640 | 42 | 112 | 0.0 | 1.0 | 0.00 | 0.00 | 0.00 | 56 | 1009.4 |
| 20260506013137 | 42 | 104 | 0.0 | 2.0 | 0.00 | 0.00 | 0.00 | 55 | 1009.3 |
| 20260506012633 | 42 | 108 | 0.0 | 3.0 | 0.00 | 0.00 | 0.00 | 55 | 1009.2 |
| 20260506012130 | 42 | 94 | 1.0 | 2.0 | 0.00 | 0.00 | 0.00 | 53 | 1009.4 |
| 20260506011628 | 43 | 107 | 1.0 | 3.0 | 0.00 | 0.00 | 0.00 | 51 | 1009.2 |
| 20260506011123 | 43 | 94 | 1.0 | 2.0 | 0.00 | 0.00 | 0.00 | 52 | 1009.4 |
| 20260506010623 | 43 | 87 | 2.0 | 3.0 | 0.00 | 0.00 | 0.00 | 51 | 1009.1 |
| 20260506010119 | 44 | 257 | 3.0 | 5.0 | 0.00 | 0.00 | 0.00 | 51 | 1009.1 |
| 20260506005616 | 44 | 49 | 4.0 | 5.0 | 0.00 | 0.00 | 0.00 | 51 | 1008.7 |
| 20260506005112 | 44 | 56 | 2.0 | 2.0 | 0.00 | 0.00 | 0.00 | 51 | 1008.9 |
| 20260506004609 | 45 | 65 | 0.0 | 2.0 | 0.00 | 0.00 | 0.00 | 48 | 1008.9 |
| 20260506004106 | 45 | 77 | 2.0 | 5.0 | 0.00 | 0.00 | 0.00 | 49 | 1008.6 |
| 20260506003603 | 45 | 83 | 3.0 | 5.0 | 0.00 | 0.00 | 0.00 | 47 | 1008.5 |
| 20260506003059 | 45 | 72 | 5.0 | 7.0 | 0.00 | 0.00 | 0.00 | 46 | 1008.7 |
| 20260506002555 | 46 | 47 | 3.0 | 7.0 | 0.00 | 0.00 | 0.00 | 46 | 1008.5 |
| 20260506002051 | 46 | 54 | 1.0 | 7.0 | 0.00 | 0.00 | 0.00 | 47 | 1008.7 |
| 20260506001547 | 46 | 52 | 2.0 | 5.0 | 0.00 | 0.00 | 0.00 | 46 | 1008.3 |
| 20260506001045 | 46 | 50 | 3.0 | 6.0 | 0.00 | 0.00 | 0.00 | 46 | 1008.5 |
| 20260506000542 | 46 | 175 | 1.0 | 2.0 | 0.00 | 0.00 | 0.00 | 47 | 1008.5 |
| 20260506000039 | 46 | 91 | 0.0 | 2.0 | 0.00 | 0.00 | 0.00 | 47 | 1008.5 |
| 20260505235537 | 46 | 143 | 2.0 | 6.0 | 0.00 | 0.00 | 0.00 | 46 | 1008.4 |
| 20260505235034 | 47 | 21 | 2.0 | 7.0 | 0.00 | 0.00 | 0.00 | 46 | 1008.5 |
| 20260505234531 | 47 | 81 | 2.0 | 5.0 | 0.00 | 0.00 | 0.00 | 45 | 1008.2 |
| 20260505234027 | 47 | 291 | 2.0 | 5.0 | 0.00 | 0.00 | 0.00 | 45 | 1008.1 |
| 20260505233525 | 47 | 107 | 0.0 | 3.0 | 0.00 | 0.00 | 0.00 | 45 | 1008.2 |
| 20260505233022 | 48 | 233 | 5.0 | 9.0 | 0.00 | 0.00 | 0.00 | 43 | 1008.0 |
| 20260505232520 | 48 | 85 | 2.0 | 3.0 | 0.00 | 0.00 | 0.00 | 42 | 1007.9 |
| 20260505232017 | 48 | 70 | 2.0 | 3.0 | 0.00 | 0.00 | 0.00 | 45 | 1008.0 |
| 20260505231514 | 48 | 96 | 2.0 | 3.0 | 0.00 | 0.00 | 0.00 | 43 | 1007.9 |
| 20260505231013 | 48 | 61 | 1.0 | 10.0 | 0.00 | 0.00 | 0.00 | 44 | 1008.0 |
| 20260505230510 | 48 | 254 | 3.0 | 9.0 | 0.00 | 0.00 | 0.00 | 43 | 1008.0 |
| 20260505230007 | 49 | 57 | 1.0 | 5.0 | 0.00 | 0.00 | 0.00 | 43 | 1008.1 |
| 20260505225504 | 48 | 155 | 2.0 | 6.0 | 0.00 | 0.00 | 0.00 | 44 | 1008.1 |
| 20260505224959 | 48 | 72 | 1.0 | 6.0 | 0.00 | 0.00 | 0.00 | 44 | 1007.9 |
| 20260505224456 | 49 | 122 | 2.0 | 6.0 | 0.00 | 0.00 | 0.00 | 43 | 1007.8 |
| 20260505223953 | 51 | 68 | 1.0 | 5.0 | 0.00 | 0.00 | 0.00 | 40 | 1008.0 |
| 20260505223450 | 51 | 190 | 3.0 | 6.0 | 0.00 | 0.00 | 0.00 | 39 | 1007.9 |
| 20260505222947 | 51 | 199 | 3.0 | 5.0 | 0.00 | 0.00 | 0.00 | 39 | 1007.9 |
| 20260505222443 | 51 | 280 | 2.0 | 10.0 | 0.00 | 0.00 | 0.00 | 38 | 1007.9 |
| 20260505221939 | 51 | 154 | 1.0 | 3.0 | 0.00 | 0.00 | 0.00 | 39 | 1007.7 |
| 20260505221436 | 51 | 304 | 3.0 | 7.0 | 0.00 | 0.00 | 0.00 | 39 | 1008.1 |
| 20260505220933 | 48 | 172 | 1.0 | 6.0 | 0.00 | 0.00 | 0.00 | 43 | 1007.7 |
| 20260505220430 | 48 | 324 | 5.0 | 7.0 | 0.00 | 0.00 | 0.00 | 43 | 1007.8 |
| 20260505215928 | 48 | 82 | 3.0 | 3.0 | 0.00 | 0.00 | 0.00 | 42 | 1008.1 |
| 20260505215426 | 49 | 105 | 3.0 | 10.0 | 0.00 | 0.00 | 0.00 | 42 | 1008.0 |
| 20260505214924 | 51 | 31 | 4.0 | 6.0 | 0.00 | 0.00 | 0.00 | 39 | 1008.0 |
| 20260505214421 | 50 | 98 | 1.0 | 6.0 | 0.00 | 0.00 | 0.00 | 42 | 1008.0 |
| 20260505213918 | 50 | 101 | 1.0 | 7.0 | 0.00 | 0.00 | 0.00 | 43 | 1007.8 |
| 20260505213416 | 49 | 94 | 1.0 | 3.0 | 0.00 | 0.00 | 0.00 | 43 | 1007.8 |
| 20260505212912 | 49 | 61 | 3.0 | 5.0 | 0.00 | 0.00 | 0.00 | 42 | 1008.1 |
| 20260505212409 | 50 | 206 | 1.0 | 3.0 | 0.00 | 0.00 | 0.00 | 42 | 1007.9 |
| 20260505211905 | 49 | 58 | 4.0 | 5.0 | 0.00 | 0.00 | 0.00 | 41 | 1008.0 |
| 20260505211403 | 51 | 91 | 2.0 | 5.0 | 0.00 | 0.00 | 0.00 | 41 | 1008.0 |
| 20260505210859 | 50 | 27 | 3.0 | 9.0 | 0.00 | 0.00 | 0.00 | 40 | 1008.1 |
| 20260505210356 | 49 | 71 | 4.0 | 6.0 | 0.00 | 0.00 | 0.00 | 40 | 1008.0 |
| 20260505205853 | 49 | 54 | 5.0 | 7.0 | 0.00 | 0.00 | 0.00 | 42 | 1008.1 |
| 20260505205351 | 49 | 113 | 2.0 | 10.0 | 0.00 | 0.00 | 0.00 | 42 | 1007.9 |
| 20260505204848 | 49 | 61 | 1.0 | 5.0 | 0.00 | 0.00 | 0.00 | 41 | 1008.0 |
| 20260505204346 | 48 | 40 | 3.0 | 8.0 | 0.00 | 0.00 | 0.00 | 44 | 1007.9 |
| 20260505203843 | 48 | 179 | 2.0 | 6.0 | 0.00 | 0.00 | 0.00 | 43 | 1008.0 |
| 20260505203339 | 49 | 107 | 2.0 | 6.0 | 0.00 | 0.00 | 0.00 | 42 | 1008.1 |
| 20260505202836 | 50 | 103 | 1.0 | 6.0 | 0.00 | 0.00 | 0.00 | 42 | 1008.1 |
| 20260505202331 | 50 | 356 | 6.0 | 8.0 | 0.00 | 0.00 | 0.00 | 41 | 1008.2 |
| 20260505201828 | 49 | 174 | 2.0 | 3.0 | 0.00 | 0.00 | 0.00 | 42 | 1008.3 |
| 20260505201326 | 51 | 290 | 3.0 | 6.0 | 0.00 | 0.00 | 0.00 | 41 | 1008.2 |
| 20260505200824 | 51 | 53 | 1.0 | 3.0 | 0.00 | 0.00 | 0.00 | 41 | 1008.2 |
| 20260505200320 | 50 | 162 | 2.0 | 7.0 | 0.00 | 0.00 | 0.00 | 40 | 1008.0 |
| 20260505195816 | 49 | 102 | 1.0 | 3.0 | 0.00 | 0.00 | 0.00 | 43 | 1008.2 |
| 20260505195314 | 49 | 171 | 2.0 | 6.0 | 0.00 | 0.00 | 0.00 | 42 | 1008.3 |
| 20260505194811 | 48 | 99 | 2.0 | 5.0 | 0.00 | 0.00 | 0.00 | 43 | 1008.2 |
| 20260505194308 | 48 | 141 | 1.0 | 3.0 | 0.00 | 0.00 | 0.00 | 42 | 1008.2 |
| 20260505193803 | 48 | 51 | 5.0 | 7.0 | 0.00 | 0.00 | 0.00 | 42 | 1008.1 |
| 20260505193301 | 48 | 15 | 4.0 | 7.0 | 0.00 | 0.00 | 0.00 | 41 | 1008.3 |
| 20260505192759 | 48 | 268 | 5.0 | 9.0 | 0.00 | 0.00 | 0.00 | 41 | 1008.2 |
| 20260505192256 | 48 | 164 | 2.0 | 3.0 | 0.00 | 0.00 | 0.00 | 42 | 1008.1 |
| 20260505191754 | 48 | 303 | 2.0 | 3.0 | 0.00 | 0.00 | 0.00 | 41 | 1008.3 |
| 20260505191252 | 48 | 322 | 3.0 | 5.0 | 0.00 | 0.00 | 0.00 | 41 | 1008.4 |
| 20260505190748 | 49 | 145 | 4.0 | 7.0 | 0.00 | 0.00 | 0.00 | 40 | 1008.0 |
| 20260505190243 | 48 | 291 | 4.0 | 7.0 | 0.00 | 0.00 | 0.00 | 41 | 1008.1 |
| 20260505185740 | 49 | 78 | 1.0 | 5.0 | 0.00 | 0.00 | 0.00 | 41 | 1008.1 |
| 20260505185237 | 48 | 145 | 0.0 | 6.0 | 0.00 | 0.00 | 0.00 | 42 | 1008.3 |
| 20260505184733 | 48 | 206 | 3.0 | 9.0 | 0.00 | 0.00 | 0.00 | 42 | 1008.4 |
| 20260505184230 | 47 | 56 | 2.0 | 2.0 | 0.00 | 0.00 | 0.00 | 43 | 1008.3 |
| 20260505183727 | 47 | 278 | 1.0 | 6.0 | 0.00 | 0.00 | 0.00 | 43 | 1008.5 |
| 20260505183224 | 47 | 3 | 6.0 | 8.0 | 0.00 | 0.00 | 0.00 | 43 | 1008.3 |
| 20260505182721 | 47 | 68 | 1.0 | 2.0 | 0.00 | 0.00 | 0.00 | 44 | 1008.2 |
| 20260505182218 | 47 | 74 | 3.0 | 7.0 | 0.00 | 0.00 | 0.00 | 44 | 1008.3 |
| 20260505181714 | 47 | 182 | 2.0 | 5.0 | 0.00 | 0.00 | 0.00 | 45 | 1008.1 |
| 20260505181212 | 46 | 247 | 2.0 | 8.0 | 0.00 | 0.00 | 0.00 | 44 | 1008.2 |
| 20260505180708 | 47 | 271 | 3.0 | 6.0 | 0.00 | 0.00 | 0.00 | 43 | 1008.0 |
| 20260505180205 | 46 | 166 | 3.0 | 7.0 | 0.00 | 0.00 | 0.00 | 44 | 1008.4 |
| 20260505175701 | 46 | 280 | 3.0 | 5.0 | 0.00 | 0.00 | 0.00 | 45 | 1008.3 |
| 20260505175157 | 47 | 58 | 4.0 | 9.0 | 0.00 | 0.00 | 0.00 | 43 | 1008.1 |
| 20260505174654 | 46 | 119 | 1.0 | 11.0 | 0.00 | 0.00 | 0.00 | 45 | 1008.2 |
| 20260505174150 | 46 | 32 | 2.0 | 6.0 | 0.00 | 0.00 | 0.00 | 45 | 1008.2 |
| 20260505173647 | 46 | 261 | 2.0 | 9.0 | 0.00 | 0.00 | 0.00 | 44 | 1008.1 |
| 20260505173144 | 46 | 331 | 5.0 | 6.0 | 0.00 | 0.00 | 0.00 | 43 | 1008.4 |
| 20260505172641 | 47 | 145 | 2.0 | 6.0 | 0.00 | 0.00 | 0.00 | 43 | 1008.0 |
| 20260505172138 | 46 | 314 | 3.0 | 7.0 | 0.00 | 0.00 | 0.00 | 45 | 1008.1 |
| 20260505171637 | 46 | 43 | 3.0 | 5.0 | 0.00 | 0.00 | 0.00 | 45 | 1008.1 |
| 20260505171135 | 45 | 330 | 4.0 | 6.0 | 0.00 | 0.00 | 0.00 | 47 | 1008.1 |
| 20260505170632 | 46 | 241 | 4.0 | 8.0 | 0.00 | 0.00 | 0.00 | 45 | 1008.3 |
| 20260505170128 | 49 | 148 | 3.0 | 5.0 | 0.00 | 0.00 | 0.00 | 43 | 1008.3 |
| 20260505165624 | 47 | 305 | 4.0 | 6.0 | 0.00 | 0.00 | 0.00 | 45 | 1008.3 |
| 20260505165120 | 46 | 352 | 6.0 | 7.0 | 0.00 | 0.00 | 0.00 | 45 | 1008.2 |
| 20260505164615 | 46 | 189 | 3.0 | 6.0 | 0.00 | 0.00 | 0.00 | 47 | 1008.3 |
| 20260505164113 | 47 | 254 | 3.0 | 6.0 | 0.00 | 0.00 | 0.00 | 45 | 1008.1 |
| 20260505163612 | 48 | 231 | 5.0 | 7.0 | 0.00 | 0.00 | 0.00 | 43 | 1008.0 |
| 20260505163109 | 47 | 219 | 3.0 | 8.0 | 0.00 | 0.00 | 0.00 | 46 | 1008.2 |
| 20260505162606 | 44 | 178 | 2.0 | 3.0 | 0.00 | 0.00 | 0.00 | 49 | 1008.1 |
| 20260505162104 | 46 | 55 | 2.0 | 5.0 | 0.00 | 0.00 | 0.00 | 47 | 1008.2 |
| 20260505161601 | 47 | 147 | 1.0 | 5.0 | 0.00 | 0.00 | 0.00 | 46 | 1008.4 |
| 20260505161058 | 46 | 46 | 2.0 | 10.0 | 0.00 | 0.00 | 0.00 | 46 | 1008.2 |
| 20260505160555 | 43 | 119 | 1.0 | 5.0 | 0.00 | 0.00 | 0.00 | 50 | 1008.3 |
| 20260505153032 | 45 | 227 | 2.0 | 3.0 | 0.00 | 0.00 | 0.00 | 48 | 1007.9 |
| 20260505152529 | 44 | 176 | 4.0 | 6.0 | 0.00 | 0.00 | 0.00 | 50 | 1008.0 |
| 20260505152025 | 44 | 122 | 1.0 | 5.0 | 0.00 | 0.00 | 0.00 | 50 | 1007.9 |
| 20260505151520 | 43 | 125 | 1.0 | 5.0 | 0.00 | 0.00 | 0.00 | 51 | 1008.0 |
| 20260505151018 | 44 | 92 | 1.0 | 3.0 | 0.00 | 0.00 | 0.00 | 49 | 1007.8 |
| 20260505150514 | 44 | 99 | 2.0 | 6.0 | 0.00 | 0.00 | 0.00 | 50 | 1007.8 |
| 20260505140439 | 43 | 84 | 2.0 | 3.0 | 0.00 | 0.00 | 0.00 | 50 | 1007.5 |
| 20260505124852 | 38 | 323 | 3.0 | 8.0 | 0.00 | 0.00 | 0.00 | 58 | 1006.7 |
| 20260505124349 | 38 | 326 | 2.0 | 3.0 | 0.00 | 0.00 | 0.00 | 60 | 1006.5 |
| 20260505123845 | 37 | 88 | 2.0 | 3.0 | 0.00 | 0.00 | 0.00 | 62 | 1006.6 |
| 20260505123342 | 37 | 127 | 0.0 | 2.0 | 0.00 | 0.00 | 0.00 | 61 | 1006.6 |
| 20260505122838 | 37 | 26 | 2.0 | 3.0 | 0.00 | 0.00 | 0.00 | 63 | 1006.3 |
| 20260505122336 | 36 | 138 | 1.0 | 3.0 | 0.00 | 0.00 | 0.00 | 63 | 1006.3 |
| 20260505121832 | 36 | 28 | 2.0 | 3.0 | 0.00 | 0.00 | 0.00 | 65 | 1006.5 |
| 20260505121329 | 36 | 86 | 3.0 | 5.0 | 0.00 | 0.00 | 0.00 | 64 | 1006.4 |
| 20260505120825 | 36 | 89 | 1.0 | 5.0 | 0.00 | 0.00 | 0.00 | 66 | 1006.1 |
| 20260505120321 | 35 | 16 | 3.0 | 6.0 | 0.00 | 0.00 | 0.00 | 65 | 1006.1 |
| 20260505115820 | 35 | 101 | 1.0 | 3.0 | 0.00 | 0.00 | 0.00 | 67 | 1006.4 |
| 20260505115317 | 35 | 93 | 1.0 | 5.0 | 0.00 | 0.00 | 0.00 | 67 | 1006.2 |
| 20260505114815 | 35 | 94 | 0.0 | 2.0 | 0.00 | 0.00 | 0.00 | 68 | 1006.1 |
| 20260505114311 | 34 | 137 | 0.0 | 1.0 | 0.00 | 0.00 | 0.00 | 71 | 1006.0 |
| 20260505113808 | 34 | 43 | 2.0 | 3.0 | 0.00 | 0.00 | 0.00 | 71 | 1006.2 |
| 20260505113304 | 34 | 142 | 0.0 | 2.0 | 0.00 | 0.00 | 0.00 | 73 | 1006.1 |
| 20260505112800 | 34 | 128 | 0.0 | 2.0 | 0.00 | 0.00 | 0.00 | 73 | 1005.8 |
| 20260505112258 | 34 | 130 | 0.0 | 1.0 | 0.00 | 0.00 | 0.00 | 73 | 1005.9 |
| 20260505111758 | 34 | 118 | 0.0 | 3.0 | 0.00 | 0.00 | 0.00 | 72 | 1006.0 |
| 20260505111254 | 34 | 75 | 0.0 | 0.0 | 0.00 | 0.00 | 0.00 | 73 | 1005.6 |
| 20260505110750 | 34 | 143 | 2.0 | 2.0 | 0.00 | 0.00 | 0.00 | 74 | 1005.5 |
| 20260505110248 | 34 | 89 | 1.0 | 5.0 | 0.00 | 0.00 | 0.00 | 73 | 1005.6 |
| 20260505101722 | 35 | 134 | 1.0 | 1.0 | 0.00 | 0.00 | 0.00 | 70 | 1005.2 |
| 20260505101218 | 35 | 52 | 0.0 | 1.0 | 0.00 | 0.00 | 0.00 | 70 | 1005.1 |
| 20260505100715 | 36 | 183 | 2.0 | 3.0 | 0.00 | 0.00 | 0.00 | 70 | 1005.1 |
| 20260505100211 | 36 | 52 | 2.0 | 6.0 | 0.00 | 0.00 | 0.00 | 71 | 1005.3 |
| 20260505095707 | 36 | 306 | 3.0 | 3.0 | 0.00 | 0.00 | 0.00 | 71 | 1005.3 |
| 20260505095205 | 36 | 179 | 2.0 | 5.0 | 0.00 | 0.00 | 0.00 | 71 | 1005.3 |
| 20260505094700 | 36 | 156 | 2.0 | 5.0 | 0.00 | 0.00 | 0.00 | 72 | 1005.4 |
| 20260505094157 | 36 | 125 | 1.0 | 1.0 | 0.00 | 0.00 | 0.00 | 72 | 1005.2 |
| 20260505093653 | 36 | 149 | 0.0 | 5.0 | 0.00 | 0.00 | 0.00 | 72 | 1005.3 |
| 20260505093151 | 36 | 108 | 0.0 | 2.0 | 0.00 | 0.00 | 0.00 | 73 | 1005.2 |
| 20260505092647 | 36 | 146 | 1.0 | 3.0 | 0.00 | 0.00 | 0.00 | 73 | 1005.1 |
| 20260505092146 | 37 | 350 | 3.0 | 3.0 | 0.00 | 0.00 | 0.00 | 71 | 1005.1 |
| 20260505091643 | 37 | 143 | 1.0 | 3.0 | 0.00 | 0.00 | 0.00 | 72 | 1005.0 |